This demonstration page uses our WeatherBlox Daily Observations layout. Learn more.

Left ArrowRight Arrow

Hourly Observations for July 16, 2016

Temp ( °F °C ) Dew Point ( °F °C ) Humidity (%) Winds ( mph kmh ) Pressure ( in mb ) Visibility ( mi km ) Precip ( " mm )
12:15 am 00:15 Clear 61 16.1 59 15 93 93 E 7 11 30.09 1019 10 16 N/A
12:35 am 00:35 Clear 61 15.9 59 14.9 94 94 ESE 6 9 30.09 1019 10 16 N/A
12:55 am 00:55 Clear 60 15.8 59 15 95 95 ESE 7 11 30.09 1019 7 11 N/A
1:15 am 01:15 Clear 60 15.6 58 14.7 94 94 ESE 7 11 30.06 1018 7 11 N/A
1:35 am 01:35 Clear 60 15.7 59 14.8 94 94 ESE 6 9 30.06 1018 10 16 N/A
1:55 am 01:55 Clear 60 15.5 58 14.6 94 94 ESE 6 9 30.06 1018 7 11 N/A
2:15 am 02:15 Clear 60 15.5 58 14.5 94 94 ESE 6 9 30.06 1018 10 16 N/A
2:35 am 02:35 Clear 60 15.3 58 14.3 94 94 ESE 5 7 30.06 1018 10 16 N/A
2:55 am 02:55 Clear 59 15.1 57 14 93 93 ESE 3 6 30.06 1018 10 16 N/A
3:15 am 03:15 Clear 59 14.8 57 13.8 94 94 N N/A 30.06 1018 10 16 N/A
3:35 am 03:35 Clear 58 14.6 57 13.7 94 94 N N/A 30.06 1018 7 11 N/A
3:55 am 03:55 Clear 58 14.5 56 13.5 94 94 SE 3 6 30.06 1018 10 16 N/A
4:15 am 04:15 Partly Cloudy 58 14.6 57 13.7 94 94 SSE 3 6 30.06 1018 7 11 N/A
4:35 am 04:35 Cloudy 59 15.2 58 14.3 94 94 N N/A 30.06 1018 10 16 N/A
4:55 am 04:55 Mostly Cloudy 59 15.2 58 14.3 94 94 N N/A 30.03 1017 10 16 N/A
5:15 am 05:15 Cloudy 60 15.5 58 14.6 94 94 N N/A 30.06 1018 10 16 N/A
5:35 am 05:35 Mostly Cloudy 60 15.5 58 14.6 94 94 N N/A 30.03 1017 7 11 N/A
5:55 am 05:55 Mostly Cloudy 60 15.5 58 14.7 95 95 N N/A 30.03 1017 7 11 N/A
6:15 am 06:15 Cloudy 60 15.8 59 15 95 95 SE 5 7 30.03 1017 7 11 N/A
6:35 am 06:35 Cloudy with Mist and Fog 60 15.8 59 15 95 95 ESE 5 7 30.03 1017 5 8 N/A
6:55 am 06:55 Cloudy with Mist and Fog 60 15.8 59 15 95 95 ESE 8 13 30.03 1017 5 8 N/A
7:15 am 07:15 Cloudy 61 16.2 60 15.3 94 94 SE 6 9 30.03 1017 7 11 N/A
7:35 am 07:35 Cloudy 62 16.5 60 15.6 94 94 SE 8 13 30.03 1017 7 11 N/A
7:55 am 07:55 Cloudy 63 17.2 61 16.2 94 94 SSE 7 11 30.00 1016 10 16 N/A
8:15 am 08:15 Cloudy 64 17.5 62 16.5 94 94 S 8 13 30.00 1016 7 11 N/A
8:35 am 08:35 Cloudy with Mist and Fog 64 17.6 62 16.7 95 95 SSE 9 15 29.97 1015 2 3 N/A
8:55 am 08:55 Cloudy with Mist and Fog 64 17.9 63 17 95 95 SSE 10 17 29.97 1015 2 3 N/A
9:15 am 09:15 Cloudy with Mist and Fog 64 17.8 63 17 95 95 S 9 15 29.97 1015 2 2 N/A
9:35 am 09:35 Cloudy with Mist and Fog 65 18.3 64 17.5 95 95 SSE 9 15 29.97 1015 3 4 N/A
9:55 am 09:55 Cloudy with Mist and Fog 65 18.6 64 17.6 94 94 S 9 15 29.97 1015 5 8 N/A
10:15 am 10:15 Cloudy 67 19.5 64 17.8 90 90 S 12 19 29.97 1015 10 16 N/A
10:35 am 10:35 Cloudy 69 20.3 64 17.7 85 85 S 13 20 29.94 1014 10 16 N/A
10:55 am 10:55 Mostly Cloudy 71 21.6 65 18.1 81 81 S 12 19 29.94 1014 10 16 N/A
11:15 am 11:15 Partly Cloudy 72 22.4 65 18.1 77 77 S 10 17 29.91 1013 10 16 N/A
11:35 am 11:35 Sunny 74 23.1 64 17.6 71 71 SSE 12 19 29.88 1012 10 16 N/A
11:55 am 11:55 Sunny 76 24.3 64 17.8 67 67 S 15 24 29.88 1012 10 16 N/A
12:15 pm 12:15 Sunny 77 24.9 64 17.7 64 64 SSE 16 26 29.85 1011 10 16 N/A
12:35 pm 12:35 Sunny 78 25.7 63 17.3 60 60 SSE 18 30 29.85 1011 10 16 N/A
12:55 pm 12:55 Sunny 80 26.4 62 16.8 56 56 S 14 22 29.85 1011 10 16 N/A
1:15 pm 13:15 Sunny 79 26.2 62 16.6 56 56 SSE 17 28 29.85 1011 10 16 N/A
2:15 pm 14:15 undefined N/A N/A N/A S 14 22 N/A N/A N/A
2:35 pm 14:35 undefined 83 28.1 62 16.6 50 50 S 16 26 29.80 1009 10 16 N/A
2:55 pm 14:55 Sunny 81 27 64 17.5 56 56 SSE 13 20 29.77 1008 10 16 N/A
3:15 pm 15:15 Sunny 82 27.8 65 18.4 57 57 SSE 14 22 29.77 1008 10 16 N/A
3:35 pm 15:35 Sunny 83 28.4 66 18.8 56 56 SSE 14 22 29.77 1008 10 16 N/A
3:55 pm 15:55 Sunny 83 28.3 64 17.9 53 53 S 17 28 29.74 1007 10 16 N/A
4:15 pm 16:15 Sunny 83 28.6 64 18 53 53 S 16 26 29.74 1007 10 16 N/A
4:35 pm 16:35 Sunny 86 30 63 17.2 46 46 SSE 16 26 29.71 1006 10 16 N/A
4:55 pm 16:55 Sunny 85 29.5 61 16.3 45 45 S 17 28 29.68 1005 10 16 N/A
5:15 pm 17:15 Sunny 86 30 64 17.8 48 48 S 16 26 29.68 1005 10 16 N/A
5:35 pm 17:35 Sunny 86 30.1 64 17.6 47 47 SSE 22 35 29.65 1004 10 16 N/A
5:55 pm 17:55 Sunny 86 30.1 63 17.1 46 46 S 18 30 29.65 1004 10 16 N/A
6:15 pm 18:15 Sunny 86 30 64 17.5 47 47 S 14 22 29.65 1004 10 16 N/A
6:35 pm 18:35 Sunny 85 29.7 64 17.6 48 48 SSE 18 30 29.65 1004 10 16 N/A
6:55 pm 18:55 Partly Cloudy 84 29.1 64 17.5 50 50 S 16 26 29.68 1005 10 16 N/A
7:15 pm 19:15 Partly Cloudy 84 28.7 65 18.2 53 53 S 13 20 29.71 1006 10 16 N/A
7:35 pm 19:35 Partly Cloudy 83 28.6 66 19 56 56 SSE 14 22 29.71 1006 10 16 N/A
7:55 pm 19:55 Sunny 82 28 67 19.3 59 59 SSE 10 17 29.71 1006 10 16 N/A
8:15 pm 20:15 Sunny 81 27.2 67 19.3 62 62 SSE 10 17 29.71 1006 10 16 N/A
8:35 pm 20:35 Sunny 79 26.3 67 19.6 67 67 SSE 8 13 29.71 1006 10 16 N/A
8:55 pm 20:55 Sunny 78 25.6 67 19.5 69 69 SSE 5 7 29.74 1007 10 16 N/A
9:15 pm 21:15 Clear 76 24.7 67 19.3 72 72 SSE 7 11 29.77 1008 10 16 N/A
9:35 pm 21:35 Clear 75 24.1 67 19.3 75 75 SSE 8 13 29.77 1008 10 16 N/A
9:55 pm 21:55 Clear 75 24.1 66 18.7 72 72 SSE 8 13 29.77 1008 10 16 N/A
10:15 pm 22:15 Clear 75 23.9 65 18.1 70 70 S 8 13 29.80 1009 10 16 N/A
10:35 pm 22:35 Clear 75 23.8 64 17.6 68 68 S 6 9 29.80 1009 10 16 N/A
10:55 pm 22:55 Clear 73 23 64 17.8 73 73 S 9 15 29.80 1009 10 16 N/A
11:15 pm 23:15 Clear 74 23.5 64 17.5 69 69 S 9 15 29.80 1009 10 16 N/A
11:35 pm 23:35 Clear 74 23.1 64 17.5 71 71 S 12 19 29.80 1009 10 16 N/A
11:55 pm 23:55 Clear 74 23.1 64 17.5 71 71 S 13 20 29.77 1008 10 16 N/A

Powered by AerisWeather